| time (UTC) | temp C | wind direction | speed KPH | gust KPH | rain 1hr cm | rain 24hr cm | rain mn cm | humidity % | barometer mb |
| 20260509043054 | 7 | 176 | 9.7 | 0.0 | 0.00 | 0.00 | 0.00 | 45 | 977.3 |
| 20260509041537 | 7 | 174 | 9.7 | 0.0 | 0.00 | 0.00 | 0.00 | 45 | 977.3 |
| 20260509040113 | 7 | 178 | 11.3 | 0.0 | 0.00 | 0.00 | 0.00 | 45 | 977.3 |
| 20260509034538 | 7 | 180 | 11.3 | 0.0 | 0.00 | 0.00 | 0.00 | 46 | 978.1 |
| 20260509033053 | 8 | 175 | 11.3 | 0.0 | 0.00 | 0.00 | 0.00 | 38 | 978.8 |
| 20260509031537 | 8 | 176 | 9.7 | 0.0 | 0.00 | 0.00 | 0.00 | 38 | 978.8 |
| 20260509030109 | 8 | 184 | 9.7 | 0.0 | 0.00 | 0.00 | 0.00 | 38 | 978.8 |
| 20260509024537 | 9 | 193 | 9.7 | 0.0 | 0.00 | 0.00 | 0.00 | 28 | 979.1 |
| 20260509023056 | 10 | 202 | 9.7 | 0.0 | 0.00 | 0.00 | 0.00 | 34 | 979.1 |
| 20260509021537 | 10 | 215 | 9.7 | 0.0 | 0.00 | 0.00 | 0.00 | 34 | 979.0 |
| 20260509020107 | 10 | 222 | 9.7 | 0.0 | 0.00 | 0.00 | 0.00 | 34 | 979.0 |
| 20260509014537 | 10 | 222 | 9.7 | 0.0 | 0.00 | 0.00 | 0.00 | 36 | 978.8 |
| 20260509013052 | 10 | 240 | 6.4 | 0.0 | 0.00 | 0.00 | 0.00 | 36 | 978.8 |
| 20260509011537 | 11 | 254 | 6.4 | 0.0 | 0.00 | 0.00 | 0.00 | 36 | 978.9 |
| 20260509004536 | 12 | 263 | 8.0 | 0.0 | 0.00 | 0.00 | 0.00 | 30 | 978.6 |
| 20260509003054 | 12 | 262 | 6.4 | 0.0 | 0.00 | 0.00 | 0.00 | 31 | 980.0 |
| 20260509001536 | 13 | 267 | 6.4 | 0.0 | 0.00 | 0.00 | 0.00 | 31 | 979.9 |
| 20260509000112 | 13 | 268 | 8.0 | 0.0 | 0.00 | 0.00 | 0.00 | 31 | 979.9 |
| 20260508234537 | 14 | 270 | 11.3 | 0.0 | 0.00 | 0.00 | 0.00 | 25 | 979.0 |
| 20260508233057 | 15 | 270 | 12.9 | 0.0 | 0.00 | 0.00 | 0.00 | 24 | 979.5 |
| 20260508231539 | 15 | 269 | 14.5 | 0.0 | 0.00 | 0.00 | 0.00 | 24 | 979.5 |
| 20260508224538 | 15 | 269 | 16.1 | 0.0 | 0.00 | 0.00 | 0.00 | 24 | 979.6 |
| 20260508223057 | 15 | 272 | 17.7 | 0.0 | 0.00 | 0.00 | 0.00 | 22 | 980.5 |
| 20260508221539 | 15 | 270 | 19.3 | 0.0 | 0.00 | 0.00 | 0.00 | 22 | 980.5 |
| 20260508220104 | 16 | 268 | 19.3 | 0.0 | 0.00 | 0.00 | 0.00 | 22 | 980.5 |
| 20260508214539 | 16 | 266 | 19.3 | 0.0 | 0.00 | 0.00 | 0.00 | 22 | 981.0 |
| 20260508213056 | 16 | 263 | 20.9 | 0.0 | 0.00 | 0.00 | 0.00 | 24 | 980.4 |
| 20260508211539 | 16 | 259 | 19.3 | 0.0 | 0.00 | 0.00 | 0.00 | 24 | 980.4 |
| 20260508210108 | 16 | 257 | 19.3 | 0.0 | 0.00 | 0.00 | 0.00 | 24 | 980.4 |
| 20260508204539 | 16 | 252 | 19.3 | 0.0 | 0.00 | 0.00 | 0.00 | 30 | 980.6 |
| 20260508203057 | 16 | 248 | 19.3 | 0.0 | 0.00 | 0.00 | 0.00 | 26 | 980.4 |
| 20260508201539 | 16 | 249 | 14.5 | 0.0 | 0.00 | 0.00 | 0.00 | 26 | 980.4 |
| 20260508200104 | 16 | 252 | 16.1 | 0.0 | 0.00 | 0.00 | 0.00 | 26 | 980.4 |
| 20260508194539 | 16 | 254 | 16.1 | 0.0 | 0.00 | 0.00 | 0.00 | 23 | 980.8 |
| 20260508193054 | 16 | 256 | 16.1 | 0.0 | 0.00 | 0.00 | 0.00 | 23 | 980.8 |
| 20260508191538 | 16 | 257 | 16.1 | 0.0 | 0.00 | 0.00 | 0.00 | 23 | 980.8 |
| 20260508184539 | 16 | 254 | 16.1 | 0.0 | 0.00 | 0.00 | 0.00 | 28 | 981.2 |
| 20260508183058 | 16 | 249 | 16.1 | 0.0 | 0.00 | 0.00 | 0.00 | 28 | 980.9 |
| 20260508181538 | 16 | 246 | 16.1 | 0.0 | 0.00 | 0.00 | 0.00 | 28 | 980.9 |
| 20260508180108 | 16 | 247 | 16.1 | 0.0 | 0.00 | 0.00 | 0.00 | 28 | 980.9 |
| 20260508174539 | 15 | 248 | 17.7 | 0.0 | 0.00 | 0.00 | 0.00 | 31 | 981.8 |
| 20260508173057 | 15 | 252 | 17.7 | 0.0 | 0.00 | 0.00 | 0.00 | 31 | 981.8 |
| 20260508171539 | 15 | 251 | 16.1 | 0.0 | 0.00 | 0.00 | 0.00 | 31 | 981.8 |
| 20260508170104 | 15 | 255 | 16.1 | 0.0 | 0.00 | 0.00 | 0.00 | 31 | 981.8 |
| 20260508164538 | 14 | 254 | 14.5 | 0.0 | 0.00 | 0.00 | 0.00 | 36 | 982.1 |
| 20260508163057 | 14 | 251 | 12.9 | 0.0 | 0.00 | 0.00 | 0.00 | 36 | 982.4 |
| 20260508161539 | 13 | 241 | 12.9 | 0.0 | 0.00 | 0.00 | 0.00 | 36 | 982.3 |
| 20260508160109 | 13 | 237 | 12.9 | 0.0 | 0.00 | 0.00 | 0.00 | 36 | 982.3 |
| 20260508154539 | 12 | 230 | 11.3 | 0.0 | 0.00 | 0.00 | 0.00 | 38 | 983.3 |
| 20260508153059 | 12 | 211 | 9.7 | 0.0 | 0.00 | 0.00 | 0.00 | 44 | 982.3 |
| 20260508151539 | 11 | 203 | 9.7 | 0.0 | 0.00 | 0.00 | 0.00 | 44 | 982.3 |
| 20260508150108 | 11 | 205 | 8.0 | 0.0 | 0.00 | 0.00 | 0.00 | 44 | 982.3 |
| 20260508144539 | 11 | 198 | 6.4 | 0.0 | 0.00 | 0.00 | 0.00 | 61 | 982.4 |
| 20260508143056 | 10 | 201 | 8.0 | 0.0 | 0.00 | 0.00 | 0.00 | 59 | 982.6 |
| 20260508141539 | 10 | 200 | 8.0 | 0.0 | 0.00 | 0.00 | 0.00 | 59 | 982.6 |
| 20260508140115 | 10 | 200 | 6.4 | 0.0 | 0.00 | 0.00 | 0.00 | 61 | 982.5 |
| 20260508134539 | 9 | 200 | 6.4 | 0.0 | 0.00 | 0.00 | 0.00 | 71 | 982.3 |
| 20260508133054 | 8 | 193 | 9.7 | 0.0 | 0.00 | 0.00 | 0.00 | 71 | 982.3 |
| 20260508131539 | 7 | 190 | 9.7 | 0.0 | 0.00 | 0.00 | 0.00 | 71 | 982.3 |
| 20260508130112 | 6 | 188 | 9.7 | 0.0 | 0.00 | 0.00 | 0.00 | 71 | 982.3 |
| 20260508124539 | 6 | 184 | 9.7 | 0.0 | 0.00 | 0.00 | 0.00 | 86 | 981.5 |
| 20260508123057 | 5 | 192 | 8.0 | 0.0 | 0.00 | 0.00 | 0.00 | 84 | 982.1 |
| 20260508121539 | 5 | 186 | 6.4 | 0.0 | 0.00 | 0.00 | 0.00 | 84 | 982.1 |
| 20260508120119 | 3 | 176 | 3.2 | 0.0 | 0.00 | 0.00 | 0.00 | 84 | 982.1 |
| 20260508114538 | 3 | 180 | 3.2 | 0.0 | 0.00 | 0.00 | 0.00 | 85 | 981.5 |
| 20260508113100 | 2 | 176 | 4.8 | 0.0 | 0.00 | 0.00 | 0.00 | 80 | 982.3 |
| 20260508111538 | 2 | 162 | 6.4 | 0.0 | 0.00 | 0.00 | 0.00 | 80 | 982.3 |
| 20260508110105 | 2 | 162 | 6.4 | 0.0 | 0.00 | 0.00 | 0.00 | 80 | 982.3 |
| 20260508104541 | 1 | 153 | 6.4 | 0.0 | 0.00 | 0.00 | 0.00 | 76 | 981.4 |
| 20260508103058 | 1 | 146 | 6.4 | 0.0 | 0.00 | 0.00 | 0.00 | 73 | 982.3 |
| 20260508101541 | 2 | 157 | 4.8 | 0.0 | 0.00 | 0.00 | 0.00 | 73 | 982.4 |
| 20260508100104 | 2 | 153 | 4.8 | 0.0 | 0.00 | 0.00 | 0.00 | 73 | 982.4 |
| 20260508094540 | 2 | 141 | 4.8 | 0.0 | 0.00 | 0.00 | 0.00 | 69 | 981.7 |
| 20260508093054 | 2 | 145 | 3.2 | 0.0 | 0.00 | 0.00 | 0.00 | 72 | 982.4 |
| 20260508091541 | 3 | 186 | 6.4 | 0.0 | 0.00 | 0.00 | 0.00 | 72 | 982.5 |
| 20260508090108 | 3 | 192 | 6.4 | 0.0 | 0.00 | 0.00 | 0.00 | 72 | 982.5 |
| 20260508084541 | 3 | 189 | 6.4 | 0.0 | 0.00 | 0.00 | 0.00 | 69 | 981.9 |
| 20260508083059 | 3 | 189 | 6.4 | 0.0 | 0.00 | 0.00 | 0.00 | 75 | 981.7 |
| 20260508081540 | 3 | 195 | 6.4 | 0.0 | 0.00 | 0.00 | 0.00 | 75 | 981.7 |
| 20260508080110 | 3 | 198 | 6.4 | 0.0 | 0.00 | 0.00 | 0.00 | 75 | 981.7 |
| 20260508074541 | 3 | 210 | 6.4 | 0.0 | 0.00 | 0.00 | 0.00 | 82 | 982.5 |
| 20260508073059 | 3 | 214 | 6.4 | 0.0 | 0.00 | 0.00 | 0.00 | 82 | 982.5 |
| 20260508071540 | 4 | 207 | 6.4 | 0.0 | 0.00 | 0.00 | 0.00 | 82 | 982.6 |
| 20260508070110 | 4 | 212 | 8.0 | 0.0 | 0.00 | 0.00 | 0.00 | 82 | 982.6 |
| 20260508064539 | 4 | 212 | 8.0 | 0.0 | 0.00 | 0.00 | 0.00 | 80 | 982.3 |
| 20260508063056 | 4 | 211 | 6.4 | 0.0 | 0.00 | 0.00 | 0.00 | 83 | 982.7 |
| 20260508061540 | 5 | 220 | 4.8 | 0.0 | 0.00 | 0.00 | 0.00 | 83 | 982.7 |
| 20260508060121 | 4 | 225 | 6.4 | 0.0 | 0.00 | 0.00 | 0.00 | 83 | 982.7 |
| 20260508054539 | 5 | 213 | 6.4 | 0.0 | 0.00 | 0.00 | 0.00 | 82 | 983.5 |
| 20260508053059 | 5 | 207 | 6.4 | 0.0 | 0.00 | 0.00 | 0.00 | 87 | 983.2 |
| 20260508051538 | 5 | 193 | 4.8 | 0.0 | 0.00 | 0.00 | 0.00 | 87 | 983.1 |
| 20260508050111 | 5 | 208 | 6.4 | 0.0 | 0.00 | 0.00 | 0.00 | 87 | 983.1 |
| 20260508044538 | 5 | 201 | 8.0 | 0.0 | 0.00 | 0.00 | 0.00 | 79 | 983.3 |